Location: Artiguedieu
(43.5000°N, 0.5454°E)
Time: 07:20:54
(UTC+00:00)

COSMO-SKYMED 1 - Pass Details

Date: 06 December 2020
Orbit: 621 x 623 km, 97.9° (Epoch: 20 January)

Event Time Altitude Azimuth Distance (km) Brightness Sun altitude
Rises 05:29:08 0° 178° (S) 2,889 6.2 -18.8°
Reaches altitude 10° 05:31:21 10° 183° (S) 1,988 5.3 -18.4°
Maximum altitude 05:35:35 52° 260° (W) 780 2.7 -17.6°
Enters shadow 05:37:56 24° 326° (NNW) 1,287 3.8 -17.2°
